This is the latest recevied weather packets stored in our database for station/object KQ7A. If no packets are shown the sender has not sent any weather packets the latest 1 day(s).
| Time | Temp. | Humidity | Pressure | Rain* | Wind** | Luminosity | Snow |
|---|---|---|---|---|---|---|---|
| 1778003633 | 8.89° C | 85% | 1015.5 hPa | 0 mm | 0 m/s | 121 W/m² | - |
| 1778003329 | 8.89° C | 85% | 1015.6 hPa | 0 mm | 0 m/s | 108 W/m² | - |
| 1778003027 | 8.89° C | 83% | 1015.2 hPa | 0 mm | 0.45 m/s, 286° | 95 W/m² | - |
| 1778002723 | 8.89° C | 84% | 1015.2 hPa | 0 mm | 0 m/s | 92 W/m² | - |
| 1778002419 | 8.89° C | 85% | 1015 hPa | 0 mm | 0 m/s | 99 W/m² | - |
| 1778002116 | 8.89° C | 87% | 1015.3 hPa | 0 mm | 0 m/s | 116 W/m² | - |
| 1778001814 | 8.89° C | 86% | 1015.1 hPa | 0 mm | 0 m/s | 124 W/m² | - |
| 1778001514 | 8.89° C | 88% | 1015.2 hPa | 0 mm | 0 m/s | 135 W/m² | - |
| 1778001211 | 8.89° C | 89% | 1014.7 hPa | 0 mm | 0.45 m/s, 233° | 159 W/m² | - |
| 1778000907 | 8.33° C | 90% | 1014.8 hPa | 0 mm | 0 m/s | 180 W/m² | - |
| 1778000604 | 8.33° C | 91% | 1015 hPa | 0 mm | 0 m/s | 141 W/m² | - |
| 1778000299 | 8.33° C | 92% | 1014.5 hPa | 0 mm | 0 m/s | 145 W/m² | - |
| 1777999995 | 7.78° C | 91% | 1014.7 hPa | 0 mm | 1.34 m/s, 289° | 160 W/m² | - |
| 1777999691 | 7.78° C | 92% | 1014.8 hPa | 0 mm | 1.34 m/s, 277° | 92 W/m² | - |
| 1777999388 | 7.78° C | 91% | 1014.7 hPa | 0 mm | 0.89 m/s, 268° | 77 W/m² | - |
| 1777999086 | 7.78° C | 90% | 1014.7 hPa | 0 mm | 0.45 m/s, 270° | 80 W/m² | - |
| 1777998785 | 7.78° C | 90% | 1014.7 hPa | 0 mm | 0.89 m/s, 265° | 73 W/m² | - |
| 1777998483 | 7.78° C | 89% | 1014.5 hPa | 0 mm | 0.89 m/s, 261° | 75 W/m² | - |
| 1777998178 | 7.78° C | 91% | 1014.6 hPa | 0 mm | 0 m/s | 92 W/m² | - |
| 1777997876 | 7.78° C | 91% | 1014.1 hPa | 0 mm | 0 m/s | 105 W/m² | - |
| 1777997573 | 7.78° C | 91% | 1014.3 hPa | 0 mm | 0 m/s | 88 W/m² | - |
| 1777997270 | 7.22° C | 91% | 1014 hPa | 0 mm | 0 m/s | 102 W/m² | - |
| 1777996968 | 7.22° C | 92% | 1013.9 hPa | 0 mm | 0 m/s | 85 W/m² | - |
| 1777996664 | 7.22° C | 91% | 1014.1 hPa | 0 mm | 0 m/s | 64 W/m² | - |
| 1777996360 | 7.22° C | 92% | 1014.4 hPa | 0 mm | 0 m/s | 72 W/m² | - |
* Rain latest hour (hover to see other rain measurements)
** Current wind speed in m/s (hover to see current wind gust speed)